BEIJING 1 1 28890U 05043A 26127.19764459 .00000069 00000+0 22832-4 0 9997 2 28890 98.2855 260.1955 0015694 52.9762 307.2873 14.63507758 94650 HUANJING 1A (HJ-1A) 1 33320U 08041A 26127.23641505 .00001171 00000+0 14688-3 0 9997 2 33320 97.6675 114.6657 0017429 274.3523 85.5701 14.83896653952333 HUANJING 1B (HJ-1B) 1 33321U 08041B 26127.18734620 .00001157 00000+0 14642-3 0 9997 2 33321 97.6515 117.9126 0035490 320.2719 39.5897 14.83247276952336 YAOGAN-4 1 33446U 08061A 26127.08096513 .00000871 00000+0 11334-3 0 9995 2 33446 97.9296 60.9009 0013671 199.2600 160.8098 14.83123649939579 DEIMOS-1 1 35681U 09041A 26127.15040470 .00000667 00000+0 10572-3 0 9992 2 35681 97.7361 286.1676 0001380 31.9966 328.1327 14.75195679900830 UK-DMC 2 1 35683U 09041C 26127.21160551 .00001038 00000+0 15802-3 0 9998 2 35683 97.8779 263.1952 0001705 82.1613 277.9790 14.75965837900528 DMC3-FM1 1 40715U 15032A 26127.18968882 .00001306 00000+0 15649-3 0 9993 2 40715 97.6509 353.9616 0005345 172.1909 187.9391 14.85695367583822 DMC3-FM2 1 40716U 15032B 26127.21187920 .00000868 00000+0 10604-3 0 9992 2 40716 97.6564 355.5287 0005640 178.9854 181.1374 14.85699647583829 DMC3-FM3 1 40717U 15032C 26127.16762141 .00000239 00000+0 33476-4 0 9996 2 40717 97.6616 357.2128 0004888 177.3857 182.7385 14.85695653583822